Change the Weather History Date:

Monday, April 14, 2014

  Actual Average Record
Temperature  
Mean Temperature 56 °F -  
Max Temperature 65 °F 73 °F 92 °F (1951)
Min Temperature 43 °F 48 °F 30 °F (1957)
Degree Days  
Heating Degree Days 8    
Growing Degree Days 6 (Base 50)    
Moisture  
Dew Point 34 °F    
Average Humidity 55    
Maximum Humidity 76    
Minimum Humidity 36    
Precipitation  
Precipitation 0.00 in - - ()
Sea Level Pressure  
Sea Level Pressure 30.07 in    
Wind  
Wind Speed 17 mph (North)    
Max Wind Speed 29 mph    
Max Gust Speed 38 mph    
Visibility 10 miles    
Events      
Averages and records for this station are not official NWS values.
T = Trace of Precipitation, MM = Missing Value Source: NWS Daily Summary

Daily Weather History Graph

Daily Weather History Graph

Search for Another Location

Airport or City:

Trip Planner

Search our weather history database for the weather conditions in past years. The results will help you decide how hot, cold, wet, or windy it might be!

Date:

Astronomy

Apr. 14, 2014 Rise Set
Actual Time 7:04 AM CDT 8:01 PM CDT
Civil Twilight 6:39 AM CDT 8:26 PM CDT
Nautical Twilight 6:10 AM CDT 8:56 PM CDT
Astronomical Twilight 5:39 AM CDT 9:27 PM CDT
Moon 7:42 PM CDT (4/14) 6:35 AM CDT (4/14)
Length of Visible Light 13h 47m
Length of Day
12h 56m
Full, 100% of the Moon is Illuminated
Apr 14
Full
Apr 15
Full
Apr 22
Last Quarter
Apr 29
New
May 6
First Quarter

Hourly Weather History & Observations

Time (CDT) Temp. Windchill Dew Point Humidity Pressure Visibility Wind Dir Wind Speed Gust Speed Precip Events Conditions
12:15 AM 70.7 °F - 62.8 °F 76% 29.75 in 10.0 mi NNW 6.9 mph - N/A   Mostly Cloudy
12:35 AM 69.3 °F - 58.6 °F 69% 29.75 in 10.0 mi NNE 8.1 mph - N/A   Overcast
12:55 AM 66.0 °F - 52.9 °F 63% 29.77 in 10.0 mi North 15.0 mph 18.4 mph N/A   Overcast
1:15 AM 64.0 °F - 52.2 °F 65% 29.78 in 10.0 mi North 17.3 mph 24.2 mph N/A   Overcast
1:35 AM 59.7 °F - 48.2 °F 66% 29.80 in 10.0 mi North 15.0 mph 25.3 mph N/A   Overcast
1:55 AM 58.1 °F - 46.9 °F 66% 29.81 in 10.0 mi North 19.6 mph 27.6 mph N/A   Overcast
2:15 AM 55.9 °F - 45.0 °F 67% 29.82 in 10.0 mi North 18.4 mph 24.2 mph N/A   Overcast
2:35 AM 54.9 °F - 44.2 °F 67% 29.82 in 10.0 mi North 21.9 mph 28.8 mph N/A   Overcast
2:55 AM 53.6 °F - 43.3 °F 68% 29.84 in 10.0 mi North 17.3 mph 27.6 mph N/A   Overcast
3:15 AM 52.2 °F - 42.3 °F 69% 29.83 in 10.0 mi North 19.6 mph 27.6 mph N/A   Overcast
3:35 AM 51.8 °F - 41.5 °F 68% 29.85 in 10.0 mi North 18.4 mph 27.6 mph N/A   Overcast
3:55 AM 50.9 °F - 40.8 °F 68% 29.87 in 10.0 mi North 23.0 mph 33.4 mph N/A   Overcast
4:15 AM 49.3 °F - 39.0 °F 68% 29.88 in 10.0 mi North 20.7 mph 27.6 mph N/A   Overcast
4:35 AM 49.1 °F - 38.3 °F 66% 29.89 in 10.0 mi NNW 23.0 mph 29.9 mph N/A   Overcast
4:55 AM 47.8 °F - 36.9 °F 66% 29.90 in 10.0 mi North 23.0 mph 29.9 mph N/A   Overcast
5:15 AM 47.3 °F - 36.5 °F 66% 29.91 in 10.0 mi North 19.6 mph 31.1 mph N/A   Overcast
5:35 AM 46.4 °F 38.7 °F 35.2 °F 65% 29.92 in 10.0 mi NNW 20.7 mph 27.6 mph N/A   Overcast
5:55 AM 46.0 °F 38.3 °F 35.2 °F 66% 29.94 in 10.0 mi NNW 20.7 mph 33.4 mph N/A   Overcast
6:15 AM 44.6 °F 35.1 °F 33.4 °F 65% 29.94 in 10.0 mi NNW 27.6 mph 35.7 mph N/A   Overcast
6:35 AM 44.1 °F 34.8 °F 33.4 °F 66% 29.96 in 10.0 mi NNW 25.3 mph 32.2 mph N/A   Overcast
6:55 AM 43.7 °F 34.3 °F 33.1 °F 66% 29.97 in 10.0 mi NNW 25.3 mph 32.2 mph N/A   Overcast
7:15 AM 43.3 °F 35.2 °F 32.9 °F 67% 29.99 in 10.0 mi NNW 18.4 mph 36.8 mph N/A   Overcast
7:35 AM 43.3 °F 33.8 °F 33.6 °F 69% 30.00 in 10.0 mi North 25.3 mph 36.8 mph N/A   Overcast
7:55 AM 43.2 °F 34.7 °F 33.8 °F 70% 30.02 in 10.0 mi North 19.6 mph 26.5 mph N/A   Overcast
8:15 AM 43.2 °F 34.2 °F 33.8 °F 70% 30.04 in 10.0 mi North 21.9 mph 26.5 mph N/A   Overcast
8:35 AM 43.3 °F 34.5 °F 33.8 °F 69% 30.04 in 10.0 mi NNW 21.9 mph 27.6 mph N/A   Overcast
8:55 AM 43.3 °F 35.5 °F 34.2 °F 70% 30.05 in 10.0 mi NNW 17.3 mph - N/A   Overcast
9:15 AM 43.7 °F 36.6 °F 34.0 °F 69% 30.07 in 10.0 mi NNW 15.0 mph 25.3 mph N/A   Overcast
9:35 AM 43.7 °F 36.0 °F 33.8 °F 68% 30.07 in 10.0 mi NNW 17.3 mph 31.1 mph N/A   Overcast
9:55 AM 43.9 °F 36.2 °F 33.4 °F 67% 30.08 in 10.0 mi NNW 17.3 mph 31.1 mph N/A   Overcast
10:15 AM 44.6 °F 35.1 °F 33.1 °F 64% 30.09 in 10.0 mi NNW 27.6 mph 32.2 mph N/A   Overcast
10:35 AM 45.1 °F 36.0 °F 32.7 °F 62% 30.09 in 10.0 mi North 26.5 mph 35.7 mph N/A   Overcast
10:55 AM 46.2 °F 37.9 °F 32.2 °F 58% 30.10 in 10.0 mi NNW 24.2 mph 35.7 mph N/A   Overcast
11:15 AM 46.4 °F 37.7 °F 32.0 °F 57% 30.12 in 10.0 mi NNW 26.5 mph 35.7 mph N/A   Overcast
11:35 AM 47.3 °F - 32.2 °F 56% 30.12 in 10.0 mi NNW 28.8 mph 38.0 mph N/A   Overcast
11:55 AM 47.7 °F - 32.0 °F 55% 30.13 in 10.0 mi NNW 20.7 mph 38.0 mph N/A   Overcast
12:15 PM 47.3 °F - 31.5 °F 54% 30.14 in 10.0 mi NNW 25.3 mph 34.5 mph N/A   Overcast
12:35 PM 47.3 °F - 31.3 °F 54% 30.16 in 10.0 mi North 25.3 mph 33.4 mph N/A   Overcast
12:55 PM 47.3 °F - 31.1 °F 53% 30.17 in 10.0 mi NNW 21.9 mph 32.2 mph N/A   Overcast
1:15 PM 47.7 °F - 31.3 °F 53% 30.16 in 10.0 mi North 23.0 mph 29.9 mph N/A   Overcast
1:35 PM 49.1 °F - 32.0 °F 52% 30.16 in 10.0 mi North 21.9 mph 33.4 mph N/A   Overcast
1:55 PM 49.6 °F - 31.5 °F 50% 30.17 in 10.0 mi North 21.9 mph 31.1 mph N/A   Mostly Cloudy
2:15 PM 51.1 °F - 32.2 °F 48% 30.16 in 10.0 mi North 17.3 mph 24.2 mph N/A   Mostly Cloudy
2:35 PM 50.7 °F - 31.8 °F 48% 30.16 in 10.0 mi North 23.0 mph 28.8 mph N/A   Overcast
2:55 PM 51.1 °F - 31.5 °F 47% 30.16 in 10.0 mi North 19.6 mph 32.2 mph N/A   Overcast
3:15 PM 50.7 °F - 31.1 °F 47% 30.16 in 10.0 mi NNW 23.0 mph 29.9 mph N/A   Overcast
3:35 PM 51.3 °F - 31.1 °F 46% 30.15 in 10.0 mi NNW 19.6 mph 29.9 mph N/A   Mostly Cloudy
3:55 PM 53.2 °F - 31.3 °F 43% 30.15 in 10.0 mi NNW 20.7 mph 29.9 mph N/A   Scattered Clouds
4:15 PM 54.7 °F - 31.5 °F 41% 30.14 in 10.0 mi NNW 24.2 mph 29.9 mph N/A   Mostly Cloudy
4:35 PM 53.8 °F - 30.7 °F 41% 30.14 in 10.0 mi North 19.6 mph 31.1 mph N/A   Mostly Cloudy
4:55 PM 54.0 °F - 29.7 °F 39% 30.14 in 10.0 mi North 21.9 mph 29.9 mph N/A   Scattered Clouds
5:15 PM 55.4 °F - 29.8 °F 38% 30.14 in 10.0 mi NNW 27.6 mph 33.4 mph N/A   Scattered Clouds
5:35 PM 54.7 °F - 29.1 °F 38% 30.14 in 10.0 mi NNW 19.6 mph 32.2 mph N/A   Clear
5:55 PM 54.5 °F - 28.2 °F 36% 30.14 in 10.0 mi NNW 27.6 mph 33.4 mph N/A   Clear
6:15 PM 54.0 °F - 28.2 °F 37% 30.15 in 10.0 mi North 20.7 mph 31.1 mph N/A   Clear
6:35 PM 53.8 °F - 28.4 °F 38% 30.16 in 10.0 mi North 20.7 mph 25.3 mph N/A   Clear
6:55 PM 53.2 °F - 28.0 °F 38% 30.16 in 10.0 mi North 18.4 mph 24.2 mph N/A   Clear
7:15 PM 52.3 °F - 26.6 °F 37% 30.17 in 10.0 mi North 18.4 mph 27.6 mph N/A   Clear
7:35 PM 51.8 °F - 26.2 °F 37% 30.17 in 10.0 mi North 18.4 mph 26.5 mph N/A   Clear
7:55 PM 50.9 °F - 25.7 °F 38% 30.18 in 10.0 mi North 15.0 mph 20.7 mph N/A   Clear
8:15 PM 49.8 °F - 26.6 °F 41% 30.19 in 10.0 mi North 9.2 mph 17.3 mph N/A   Clear
8:35 PM 49.1 °F - 26.4 °F 41% 30.20 in 10.0 mi North 10.4 mph - N/A   Clear
8:55 PM 48.7 °F - 25.5 °F 40% 30.21 in 10.0 mi North 10.4 mph 16.1 mph N/A   Clear
9:15 PM 48.6 °F - 24.4 °F 39% 30.23 in 10.0 mi North 10.4 mph - N/A   Clear
9:35 PM 48.2 °F - 24.4 °F 39% 30.24 in 10.0 mi North 9.2 mph - N/A   Clear
9:55 PM 47.1 °F - 25.2 °F 42% 30.26 in 10.0 mi North 8.1 mph - N/A   Clear
10:15 PM 46.2 °F 42.7 °F 26.1 °F 45% 30.27 in 10.0 mi North 6.9 mph - N/A   Clear
10:35 PM 45.5 °F 42.5 °F 26.4 °F 47% 30.28 in 10.0 mi North 5.8 mph - N/A   Clear
10:55 PM 44.6 °F 40.7 °F 26.6 °F 49% 30.29 in 10.0 mi North 6.9 mph - N/A   Clear
11:15 PM 44.4 °F 40.0 °F 26.4 °F 49% 30.29 in 10.0 mi North 8.1 mph - N/A   Clear
11:35 PM 43.7 °F 39.7 °F 26.6 °F 51% 30.30 in 10.0 mi North 6.9 mph - N/A   Clear
11:55 PM 44.6 °F 40.2 °F 26.6 °F 49% 30.30 in 10.0 mi North 8.1 mph - N/A   Clear